User: anonymous   Login
Location: Central Coast
(33.3208°S, 151.2336°E)
Time: 17:33:12
(UTC+11:00)
Language:

CUTE-I - Orbit

View from above orbital plane
View from above orbital plane
View from above satellite
View from above satellite

Ground track
Ground track

The orbit data is extracted from the following two-line orbital elements,

1 27844U 03031E   18051.93802576 +.00000042 +00000-0 +38926-4 0  9995
2 27844 098.6892 062.2970 0009574 354.5545 005.5527 14.22095375759633
Epoch (UTC): 20 February 2018 22:30:45
Eccentricity: 0.0009574
inclination: 98.6892°
perigee height: 811 km
apogee height: 825 km
right ascension of ascending node: 62.2970°
argument of perigee: 354.5545°
revolutions per day: 14.22095375
mean anomaly at epoch: 5.5527°
orbit number at epoch: 75963

The dashed part of the orbit path shows where the satellite is in the earth's shadow,  

DLR